CCA954 RJFF-ZYTL

Flight info

Callsign CCA954
Flight time 1h 32m
Altitude 35000
Route DGC G339 PSN Y782 SOT Z54 GOGET Y697 AGAVO/K0833S1220 G597 DONVO A326 SANKO W579 RUPID RUP16A
Aircraft B738/M-SDE2E3FGHIRWXY/LB1

Departure

Time 2026-04-25 04:48
Airport Fukuoka Airport (RJFF)

Arrival

Time 2026-04-25 06:21
Airport Dalian Zhoushuizi International Airport (ZYTL)
Time Latitude Longitude Altitude Speed Heading
2026-04-25 04:26 33.58373 130.44633 34 ft 0 kts 241°
2026-04-25 04:39 33.58375 130.44638 35 ft 2 kts 241°
2026-04-25 04:39 33.58382 130.44655 33 ft 2 kts 240°
2026-04-25 04:39 33.58390 130.44672 34 ft 2 kts 240°
2026-04-25 04:40 33.58398 130.44689 34 ft 2 kts 240°
2026-04-25 04:40 33.58403 130.44699 33 ft 0 kts 240°
2026-04-25 04:41 33.58403 130.44698 33 ft 1 kts 234°
2026-04-25 04:42 33.58398 130.44699 32 ft 1 kts 179°
2026-04-25 04:42 33.58396 130.44705 35 ft 1 kts 120°
2026-04-25 04:42 33.58397 130.44717 32 ft 3 kts 90°
2026-04-25 04:42 33.58397 130.44762 37 ft 8 kts 89°
2026-04-25 04:43 33.58378 130.44822 38 ft 8 kts 136°
2026-04-25 04:43 33.58314 130.44869 35 ft 15 kts 150°
2026-04-25 04:43 33.58216 130.44937 36 ft 17 kts 150°
2026-04-25 04:43 33.58115 130.45003 35 ft 16 kts 151°
2026-04-25 04:44 33.58018 130.45067 35 ft 16 kts 150°
2026-04-25 04:44 33.57926 130.45130 34 ft 15 kts 150°
2026-04-25 04:44 33.57838 130.45190 37 ft 14 kts 150°
2026-04-25 04:44 33.57752 130.45249 38 ft 14 kts 151°
2026-04-25 04:45 33.57663 130.45306 38 ft 14 kts 150°
2026-04-25 04:45 33.57577 130.45365 40 ft 14 kts 150°
2026-04-25 04:45 33.57496 130.45421 40 ft 13 kts 150°
2026-04-25 04:45 33.57417 130.45474 38 ft 13 kts 148°
2026-04-25 04:46 33.57395 130.45564 41 ft 12 kts 66°
2026-04-25 04:46 33.57435 130.45654 42 ft 12 kts 61°
2026-04-25 04:46 33.57466 130.45721 43 ft 0 kts 60°
2026-04-25 04:47 33.57475 130.45740 44 ft 6 kts 60°
2026-04-25 04:47 33.57509 130.45792 43 ft 3 kts 15°
2026-04-25 04:47 33.57541 130.45783 44 ft 6 kts 335°
2026-04-25 04:47 33.57599 130.45743 43 ft 23 kts 329°
2026-04-25 04:48 33.58031 130.45448 38 ft 118 kts 330°
2026-04-25 04:48 33.58969 130.44806 174 ft 180 kts 326°
2026-04-25 04:48 33.60100 130.44068 1122 ft 200 kts 336°
2026-04-25 04:48 33.61342 130.43231 2240 ft 201 kts 334°
2026-04-25 04:49 33.62626 130.42363 2962 ft 225 kts 335°
2026-04-25 04:49 33.64083 130.41393 3283 ft 254 kts 334°
2026-04-25 04:49 33.65679 130.40317 3919 ft 269 kts 334°
2026-04-25 04:49 33.67326 130.39198 4867 ft 275 kts 334°
2026-04-25 04:50 33.68930 130.37906 5788 ft 280 kts 326°
2026-04-25 04:50 33.70472 130.36457 6697 ft 283 kts 324°
2026-04-25 04:50 33.72015 130.34956 7547 ft 287 kts 323°
2026-04-25 04:50 33.73563 130.33445 8461 ft 288 kts 322°
2026-04-25 04:51 33.75126 130.31928 9339 ft 290 kts 322°
2026-04-25 04:51 33.76704 130.30404 10231 ft 291 kts 321°
2026-04-25 04:51 33.78325 130.28845 10680 ft 310 kts 321°
2026-04-25 04:51 33.80078 130.27163 10874 ft 335 kts 321°
2026-04-25 04:52 33.81952 130.25369 11260 ft 350 kts 321°
2026-04-25 04:52 33.83871 130.23534 11961 ft 355 kts 321°
2026-04-25 04:52 33.85804 130.21687 12804 ft 355 kts 320°
2026-04-25 04:52 33.87751 130.19829 13583 ft 358 kts 320°
2026-04-25 04:53 33.89719 130.17948 14261 ft 363 kts 319°
2026-04-25 04:53 33.91702 130.16054 14957 ft 364 kts 319°
2026-04-25 04:53 33.93689 130.14154 15682 ft 367 kts 319°
2026-04-25 04:53 33.95702 130.12227 16267 ft 372 kts 318°
2026-04-25 04:54 33.97728 130.10287 16969 ft 374 kts 318°
2026-04-25 04:54 33.99774 130.08325 17563 ft 379 kts 317°
2026-04-25 04:54 34.01843 130.06342 18230 ft 381 kts 317°
2026-04-25 04:54 34.03925 130.04344 18837 ft 383 kts 317°
2026-04-25 04:55 34.06021 130.02333 19412 ft 386 kts 317°
2026-04-25 04:55 34.08130 130.00308 19959 ft 389 kts 317°
2026-04-25 04:55 34.10252 129.98269 20515 ft 391 kts 317°
2026-04-25 04:55 34.12390 129.96214 21062 ft 394 kts 317°
2026-04-25 04:56 34.14541 129.94144 21601 ft 397 kts 316°
2026-04-25 04:56 34.16710 129.92055 22136 ft 399 kts 316°
2026-04-25 04:56 34.18887 129.89957 22652 ft 402 kts 316°
2026-04-25 04:56 34.21076 129.87846 23165 ft 404 kts 316°
2026-04-25 04:57 34.23254 129.85745 23657 ft 407 kts 316°
2026-04-25 04:57 34.25472 129.83604 24075 ft 409 kts 315°
2026-04-25 04:57 34.27701 129.81458 24492 ft 411 kts 315°
2026-04-25 04:57 34.29958 129.79302 24919 ft 413 kts 315°
2026-04-25 04:58 34.32219 129.77150 25322 ft 415 kts 315°
2026-04-25 04:58 34.34497 129.74981 25718 ft 417 kts 315°
2026-04-25 04:58 34.36779 129.72806 26104 ft 419 kts 315°
2026-04-25 04:58 34.39078 129.70611 26483 ft 421 kts 314°
2026-04-25 04:59 34.41386 129.68404 26849 ft 423 kts 314°
2026-04-25 04:59 34.43705 129.66186 27202 ft 425 kts 314°
2026-04-25 04:59 34.46028 129.63961 27565 ft 427 kts 314°
2026-04-25 04:59 34.48362 129.61723 27908 ft 429 kts 314°
2026-04-25 05:00 34.50710 129.59471 28248 ft 431 kts 314°
2026-04-25 05:00 34.53062 129.57213 28580 ft 433 kts 314°
2026-04-25 05:00 34.55429 129.54939 28895 ft 435 kts 313°
2026-04-25 05:00 34.57804 129.52657 29208 ft 437 kts 313°
2026-04-25 05:01 34.60190 129.50361 29512 ft 438 kts 313°
2026-04-25 05:01 34.62587 129.48053 29849 ft 439 kts 313°
2026-04-25 05:01 34.64974 129.45755 30304 ft 438 kts 313°
2026-04-25 05:01 34.67353 129.43465 30724 ft 435 kts 313°
2026-04-25 05:02 34.69722 129.41180 31093 ft 434 kts 313°
2026-04-25 05:02 34.72085 129.38896 31405 ft 434 kts 312°
2026-04-25 05:02 34.74446 129.36612 31724 ft 434 kts 312°
2026-04-25 05:02 34.76806 129.34330 32073 ft 433 kts 312°
2026-04-25 05:03 34.79156 129.32057 32452 ft 431 kts 312°
2026-04-25 05:03 34.81509 129.29784 32811 ft 430 kts 312°
2026-04-25 05:03 34.83826 129.27546 33135 ft 430 kts 311°
2026-04-25 05:03 34.86192 129.25261 33474 ft 429 kts 311°
2026-04-25 05:04 34.88503 129.23026 33834 ft 428 kts 311°
2026-04-25 05:04 34.90859 129.20747 34180 ft 427 kts 311°
2026-04-25 05:04 34.93151 129.18526 34445 ft 426 kts 311°
2026-04-25 05:04 34.95472 129.16275 34694 ft 426 kts 311°
2026-04-25 05:05 34.97792 129.14022 34967 ft 425 kts 311°
2026-04-25 05:05 35.00106 129.11775 35164 ft 426 kts 311°
2026-04-25 05:05 35.02435 129.09506 35148 ft 429 kts 311°
2026-04-25 05:06 35.07090 129.04981 35160 ft 426 kts 311°
2026-04-25 05:06 35.11730 129.00513 35139 ft 427 kts 314°
2026-04-25 05:06 35.14292 128.98596 35133 ft 438 kts 323°
2026-04-25 05:07 35.17043 128.96957 35140 ft 440 kts 324°
2026-04-25 05:07 35.22585 128.93776 35147 ft 440 kts 324°
2026-04-25 05:08 35.28122 128.90558 35149 ft 441 kts 324°
2026-04-25 05:08 35.33647 128.87296 35147 ft 441 kts 324°
2026-04-25 05:09 35.39181 128.84010 35148 ft 443 kts 324°
2026-04-25 05:09 35.44735 128.80711 35142 ft 443 kts 324°
2026-04-25 05:10 35.50288 128.77409 35139 ft 444 kts 324°
2026-04-25 05:10 35.55856 128.74100 35147 ft 444 kts 324°
2026-04-25 05:11 35.61394 128.70807 35144 ft 445 kts 325°
2026-04-25 05:11 35.66918 128.67516 35139 ft 445 kts 325°
2026-04-25 05:12 35.75269 128.62531 35129 ft 444 kts 325°
2026-04-25 05:12 35.80714 128.59049 35125 ft 435 kts 317°
2026-04-25 05:13 35.83080 128.56804 35126 ft 424 kts 308°
2026-04-25 05:13 35.85198 128.54290 35149 ft 422 kts 307°
2026-04-25 05:13 35.89386 128.49216 35139 ft 423 kts 308°
2026-04-25 05:14 35.93598 128.44141 35142 ft 424 kts 308°
2026-04-25 05:15 35.99965 128.36533 35136 ft 426 kts 308°
2026-04-25 05:15 36.04229 128.31438 35129 ft 427 kts 308°
2026-04-25 05:16 36.08501 128.26328 35122 ft 428 kts 308°
2026-04-25 05:16 36.12775 128.21204 35123 ft 428 kts 308°
2026-04-25 05:17 36.17047 128.16073 35117 ft 428 kts 309°
2026-04-25 05:17 36.21323 128.10929 35112 ft 428 kts 309°
2026-04-25 05:18 36.25596 128.05782 35106 ft 429 kts 309°
2026-04-25 05:18 36.29845 128.00655 35112 ft 428 kts 309°
2026-04-25 05:19 36.34106 127.95496 35105 ft 429 kts 309°
2026-04-25 05:19 36.38373 127.90321 35106 ft 429 kts 309°
2026-04-25 05:20 36.42636 127.85143 35106 ft 429 kts 309°
2026-04-25 05:20 36.46897 127.79963 35101 ft 429 kts 309°
2026-04-25 05:21 36.51172 127.74774 35104 ft 430 kts 309°
2026-04-25 05:21 36.55452 127.69573 35103 ft 430 kts 309°
2026-04-25 05:22 36.59724 127.64371 35108 ft 430 kts 309°
2026-04-25 05:22 36.63996 127.59157 35109 ft 430 kts 310°
2026-04-25 05:23 36.68266 127.53939 35111 ft 430 kts 310°
2026-04-25 05:23 36.72537 127.48712 35109 ft 430 kts 310°
2026-04-25 05:24 36.76806 127.43484 35117 ft 430 kts 310°
2026-04-25 05:24 36.80361 127.39126 35108 ft 431 kts 310°
2026-04-25 05:25 36.84629 127.33884 35105 ft 431 kts 310°
2026-04-25 05:25 36.88901 127.28616 35101 ft 431 kts 310°
2026-04-25 05:26 36.93176 127.23331 35093 ft 432 kts 310°
2026-04-25 05:26 36.97451 127.18041 35099 ft 432 kts 310°
2026-04-25 05:27 37.01718 127.12749 35097 ft 432 kts 310°
2026-04-25 05:27 37.05989 127.07445 35122 ft 433 kts 310°
2026-04-25 05:28 37.10176 127.02088 35105 ft 430 kts 306°
2026-04-25 05:28 37.13810 126.96175 35124 ft 428 kts 303°
2026-04-25 05:29 37.17393 126.90189 35113 ft 429 kts 303°
2026-04-25 05:29 37.21028 126.84241 35123 ft 430 kts 304°
2026-04-25 05:30 37.24663 126.78288 35127 ft 430 kts 304°
2026-04-25 05:30 37.28218 126.72440 35151 ft 430 kts 304°
2026-04-25 05:31 37.31844 126.66465 35155 ft 430 kts 304°
2026-04-25 05:31 37.35471 126.60480 35158 ft 430 kts 304°
2026-04-25 05:32 37.39042 126.54445 35154 ft 428 kts 298°
2026-04-25 05:32 37.40304 126.51086 35172 ft 424 kts 287°
2026-04-25 05:32 37.41057 126.47511 35163 ft 421 kts 277°
2026-04-25 05:33 37.41229 126.40182 35166 ft 420 kts 268°
2026-04-25 05:33 37.41102 126.32841 35165 ft 420 kts 268°
2026-04-25 05:34 37.41000 126.25494 35163 ft 421 kts 268°
2026-04-25 05:34 37.40923 126.18173 35156 ft 421 kts 268°
2026-04-25 05:35 37.40851 126.10807 35159 ft 421 kts 268°
2026-04-25 05:35 37.40774 126.03446 35155 ft 421 kts 268°
2026-04-25 05:36 37.40693 125.96078 35154 ft 421 kts 268°
2026-04-25 05:36 37.40607 125.88712 35153 ft 422 kts 268°
2026-04-25 05:37 37.40516 125.81333 35158 ft 422 kts 268°
2026-04-25 05:37 37.40420 125.73955 35150 ft 422 kts 268°
2026-04-25 05:38 37.40321 125.66580 35150 ft 422 kts 268°
2026-04-25 05:38 37.40221 125.59196 35146 ft 422 kts 268°
2026-04-25 05:39 37.40123 125.51804 35145 ft 422 kts 268°
2026-04-25 05:39 37.40020 125.44417 35144 ft 422 kts 268°
2026-04-25 05:40 37.39913 125.37074 35148 ft 423 kts 268°
2026-04-25 05:40 37.39800 125.29636 35142 ft 423 kts 268°
2026-04-25 05:41 37.39684 125.22289 35141 ft 423 kts 268°
2026-04-25 05:41 37.39562 125.14899 35140 ft 423 kts 268°
2026-04-25 05:42 37.39436 125.07500 35149 ft 423 kts 268°
2026-04-25 05:42 37.39306 125.00101 35148 ft 424 kts 268°
2026-04-25 05:43 37.39171 124.92694 35136 ft 424 kts 268°
2026-04-25 05:43 37.39033 124.85282 35145 ft 424 kts 268°
2026-04-25 05:44 37.38886 124.77867 35132 ft 424 kts 268°
2026-04-25 05:44 37.38732 124.70443 35129 ft 425 kts 268°
2026-04-25 05:45 37.38574 124.63026 35129 ft 425 kts 268°
2026-04-25 05:45 37.38413 124.55596 35131 ft 425 kts 268°
2026-04-25 05:46 37.38247 124.48175 35124 ft 425 kts 268°
2026-04-25 05:46 37.37152 124.40911 35135 ft 424 kts 250°
2026-04-25 05:47 37.34451 124.34336 35137 ft 425 kts 238°
2026-04-25 05:47 37.31226 124.28100 35119 ft 425 kts 238°
2026-04-25 05:48 37.28044 124.21884 35131 ft 426 kts 238°
2026-04-25 05:48 37.24848 124.15568 35132 ft 426 kts 238°
2026-04-25 05:49 37.21658 124.09366 35123 ft 426 kts 237°
2026-04-25 05:49 37.19181 124.02720 35135 ft 424 kts 262°
2026-04-25 05:49 37.19145 123.99029 35126 ft 425 kts 277°
2026-04-25 05:50 37.19843 123.95439 35125 ft 427 kts 290°
2026-04-25 05:50 37.21270 123.92164 35132 ft 429 kts 303°
2026-04-25 05:50 37.23045 123.89148 35123 ft 430 kts 306°
2026-04-25 05:51 37.26735 123.83213 35119 ft 432 kts 306°
2026-04-25 05:51 37.30415 123.77244 35114 ft 432 kts 306°
2026-04-25 05:52 37.34055 123.71227 35112 ft 433 kts 305°
2026-04-25 05:52 37.37686 123.65176 35102 ft 433 kts 305°
2026-04-25 05:53 37.41307 123.59126 35107 ft 433 kts 305°
2026-04-25 05:53 37.44931 123.53064 35099 ft 433 kts 305°
2026-04-25 05:54 37.48547 123.47005 35094 ft 433 kts 305°
2026-04-25 05:54 37.53963 123.37910 35097 ft 432 kts 305°
2026-04-25 05:55 37.55742 123.34920 35073 ft 420 kts 305°
2026-04-25 05:55 37.57548 123.32111 35078 ft 406 kts 311°
2026-04-25 05:55 37.59474 123.29589 35077 ft 392 kts 313°
2026-04-25 05:55 37.61369 123.27201 35069 ft 379 kts 313°
2026-04-25 05:56 37.63215 123.24893 35063 ft 367 kts 313°
2026-04-25 05:56 37.64993 123.22664 35065 ft 354 kts 313°
2026-04-25 05:56 37.68376 123.18381 35099 ft 348 kts 313°
2026-04-25 05:57 37.71855 123.13932 35096 ft 364 kts 313°
2026-04-25 05:57 37.75440 123.09334 35081 ft 368 kts 313°
2026-04-25 05:58 37.78989 123.04777 35058 ft 358 kts 313°
2026-04-25 05:58 37.82506 123.00253 35008 ft 362 kts 313°
2026-04-25 05:59 37.84282 122.97963 34660 ft 368 kts 313°
2026-04-25 05:59 37.86058 122.95672 34179 ft 370 kts 313°
2026-04-25 05:59 37.87861 122.93346 33669 ft 371 kts 313°
2026-04-25 05:59 37.89673 122.91006 33218 ft 370 kts 313°
2026-04-25 06:00 37.91455 122.88707 32843 ft 367 kts 313°
2026-04-25 06:00 37.93278 122.86347 31647 ft 385 kts 313°
2026-04-25 06:00 37.95209 122.83844 30378 ft 407 kts 313°
2026-04-25 06:00 37.97206 122.81257 29633 ft 411 kts 313°
2026-04-25 06:01 37.99193 122.78684 29169 ft 406 kts 313°
2026-04-25 06:01 38.01155 122.76142 28777 ft 400 kts 313°
2026-04-25 06:01 38.03085 122.73638 28339 ft 395 kts 313°
2026-04-25 06:01 38.05004 122.71145 27821 ft 393 kts 313°
2026-04-25 06:02 38.06905 122.68673 27317 ft 391 kts 313°
2026-04-25 06:02 38.08802 122.66204 26845 ft 389 kts 313°
2026-04-25 06:02 38.10682 122.63760 26390 ft 386 kts 313°
2026-04-25 06:02 38.12560 122.61341 25940 ft 383 kts 314°
2026-04-25 06:03 38.14431 122.58937 25501 ft 381 kts 314°
2026-04-25 06:03 38.16282 122.56558 25070 ft 378 kts 314°
2026-04-25 06:03 38.18118 122.54193 24560 ft 372 kts 314°
2026-04-25 06:03 38.19928 122.51858 23910 ft 370 kts 314°
2026-04-25 06:04 38.21735 122.49525 23179 ft 368 kts 314°
2026-04-25 06:04 38.23577 122.47296 22418 ft 365 kts 321°
2026-04-25 06:04 38.25714 122.45582 21717 ft 362 kts 333°
2026-04-25 06:04 38.28045 122.44414 20996 ft 360 kts 344°
2026-04-25 06:05 38.30488 122.43737 20261 ft 360 kts 348°
2026-04-25 06:05 38.32942 122.43141 19580 ft 357 kts 348°
2026-04-25 06:05 38.35375 122.42533 18930 ft 355 kts 348°
2026-04-25 06:05 38.37791 122.41904 18289 ft 353 kts 347°
2026-04-25 06:06 38.40180 122.41237 17580 ft 349 kts 342°
2026-04-25 06:06 38.42328 122.39890 16933 ft 343 kts 324°
2026-04-25 06:06 38.44246 122.38196 16347 ft 338 kts 323°
2026-04-25 06:06 38.46160 122.36471 15706 ft 335 kts 323°
2026-04-25 06:07 38.48056 122.34764 15086 ft 332 kts 323°
2026-04-25 06:07 38.49939 122.33076 14483 ft 329 kts 323°
2026-04-25 06:07 38.51808 122.31409 13920 ft 326 kts 323°
2026-04-25 06:07 38.53666 122.29759 13283 ft 324 kts 323°
2026-04-25 06:08 38.55507 122.28126 12668 ft 321 kts 323°
2026-04-25 06:08 38.57330 122.26510 12079 ft 317 kts 323°
2026-04-25 06:08 38.59137 122.24908 11495 ft 315 kts 323°
2026-04-25 06:08 38.60931 122.23318 10927 ft 312 kts 323°
2026-04-25 06:09 38.62703 122.21746 10424 ft 308 kts 322°
2026-04-25 06:09 38.64409 122.20234 10271 ft 291 kts 322°
2026-04-25 06:09 38.66034 122.18793 10140 ft 276 kts 322°
2026-04-25 06:09 38.67064 122.17880 10061 ft 267 kts 322°
2026-04-25 06:10 38.68565 122.16547 9807 ft 259 kts 321°
2026-04-25 06:10 38.70062 122.15288 9593 ft 256 kts 325°
2026-04-25 06:10 38.71616 122.14139 9365 ft 261 kts 326°
2026-04-25 06:10 38.73224 122.12978 9102 ft 269 kts 327°
2026-04-25 06:11 38.74878 122.11781 8773 ft 277 kts 326°
2026-04-25 06:11 38.76564 122.10552 8439 ft 279 kts 326°
2026-04-25 06:11 38.78251 122.09316 8131 ft 279 kts 326°
2026-04-25 06:11 38.79932 122.08080 7840 ft 279 kts 326°
2026-04-25 06:12 38.81615 122.06839 7546 ft 279 kts 326°
2026-04-25 06:12 38.83370 122.05803 7356 ft 280 kts 343°
2026-04-25 06:12 38.85314 122.05698 7210 ft 279 kts
2026-04-25 06:12 38.87223 122.05964 7086 ft 274 kts
2026-04-25 06:13 38.89095 122.06206 6953 ft 266 kts 355°
2026-04-25 06:13 38.90787 122.05577 6839 ft 247 kts 319°
2026-04-25 06:13 38.91795 122.03928 6646 ft 232 kts 288°
2026-04-25 06:14 38.92735 121.99998 6143 ft 231 kts 281°
2026-04-25 06:14 38.93115 121.97994 5874 ft 231 kts 278°
2026-04-25 06:14 38.93384 121.95969 5622 ft 230 kts 274°
2026-04-25 06:14 38.93575 121.93932 5376 ft 230 kts 272°
2026-04-25 06:15 38.93735 121.91885 5133 ft 230 kts 272°
2026-04-25 06:15 38.93885 121.89840 4887 ft 231 kts 272°
2026-04-25 06:15 38.94034 121.87784 4624 ft 231 kts 272°
2026-04-25 06:15 38.94184 121.85729 4366 ft 231 kts 272°
2026-04-25 06:16 38.94335 121.83675 4147 ft 228 kts 272°
2026-04-25 06:16 38.94481 121.81706 4025 ft 218 kts 272°
2026-04-25 06:16 38.94623 121.79784 3768 ft 213 kts 272°
2026-04-25 06:16 38.94761 121.77904 3510 ft 210 kts 271°
2026-04-25 06:17 38.94898 121.76060 3252 ft 203 kts 271°
2026-04-25 06:17 38.95028 121.74324 2979 ft 187 kts 271°
2026-04-25 06:17 38.95147 121.72730 2742 ft 172 kts 271°
2026-04-25 06:17 38.95254 121.71291 2517 ft 156 kts 271°
2026-04-25 06:18 38.95354 121.69944 2346 ft 151 kts 270°
2026-04-25 06:18 38.95453 121.68601 2160 ft 148 kts 271°
2026-04-25 06:18 38.95550 121.67313 1947 ft 142 kts 271°
2026-04-25 06:18 38.95645 121.66040 1753 ft 145 kts 271°
2026-04-25 06:19 38.95741 121.64749 1554 ft 146 kts 271°
2026-04-25 06:19 38.95840 121.63438 1362 ft 149 kts 270°
2026-04-25 06:19 38.95939 121.62104 1167 ft 153 kts 269°
2026-04-25 06:19 38.96035 121.60719 957 ft 156 kts 274°
2026-04-25 06:20 38.96158 121.59275 693 ft 173 kts 272°
2026-04-25 06:20 38.96273 121.57739 482 ft 169 kts 275°
2026-04-25 06:20 38.96394 121.56241 239 ft 168 kts 273°
2026-04-25 06:20 38.96506 121.54822 122 ft 146 kts 273°
2026-04-25 06:21 38.96582 121.53730 105 ft 74 kts 276°
2026-04-25 06:21 38.96592 121.53477 105 ft 18 kts 266°
2026-04-25 06:21 38.96573 121.53321 106 ft 17 kts 252°
2026-04-25 06:21 38.96529 121.53180 106 ft 17 kts 247°
2026-04-25 06:22 38.96483 121.53098 105 ft 11 kts 200°
2026-04-25 06:22 38.96423 121.53145 104 ft 12 kts 112°
2026-04-25 06:22 38.96409 121.53255 105 ft 13 kts 89°
2026-04-25 06:22 38.96409 121.53373 105 ft 13 kts 92°
2026-04-25 06:23 38.96402 121.53489 105 ft 13 kts 96°
2026-04-25 06:23 38.96393 121.53603 105 ft 13 kts 96°
2026-04-25 06:23 38.96384 121.53712 105 ft 12 kts 96°
2026-04-25 06:23 38.96378 121.53819 105 ft 12 kts 94°
2026-04-25 06:24 38.96372 121.53924 105 ft 12 kts 94°
2026-04-25 06:24 38.96362 121.54024 105 ft 9 kts 119°
2026-04-25 06:24 38.96304 121.54028 105 ft 9 kts 191°
2026-04-25 06:24 38.96264 121.54023 105 ft 0 kts 181°